Regional Weather Roundup
Issued by NWS

Home | Current Version | Previous Version | Text Only | Print | Product List | Glossary Off
Versions: 1 2 3 4 5 6 7 8 9 10 11 12 13 14 15 16 17 18 19 20 21 22 23 24 25 26 27 28 29 30 31 32 33 34 35 36 37 38 39 40 41 42 43 44 45 46 47 48 49 50

000
ASUS45 KBOI 171910
RWRID
WEATHER ROUNDUP FOR IDAHO
NATIONAL WEATHER SERVICE BOISE ID
1200 PM MST WED DEC 17 2014

NOTE: "FAIR" INDICATES FEW OR NO CLOUDS BELOW 12000 FEET
WITH NO SIGNIFICANT WEATHER AND/OR OBSTRUCTIONS TO VISIBILITY

IDZ012-014-172000-
SOUTHWEST IDAHO


CITY           SKY/WX    TMP DP  RH WIND       PRES   REMARKS
BOISE          MOSUNNY   45  31  58 SE14      29.96F
CALDWELL       CLOUDY    39  28  65 E7        30.00F WCI  34
MOUNTAIN HOME  SUNNY     39  32  74 E17       29.98F WCI  30
$$

IDZ016-017-172000-
SOUTHCENTRAL IDAHO


CITY           SKY/WX    TMP DP  RH WIND       PRES   REMARKS
BURLEY         SUNNY     37  30  75 NE7       29.98F WCI  32
JEROME         SUNNY     35  30  82 NE15      29.99F WCI  25
TWIN FALLS     SUNNY     39  31  72 N5        29.98F
$$

IDZ019>023-172000-
SOUTHEAST IDAHO


CITY           SKY/WX    TMP DP  RH WIND       PRES   REMARKS
IDAHO FALLS    FOG       30  27  88 N6        30.01F VSB 1/8 WCI  24
POCATELLO      MOSUNNY   32  31  96 NW3       30.01F
REXBURG        PTSUNNY   33  30  88 CALM      30.00F
$$

IDZ006-010-011-018-031-032-172000-
CENTRAL IDAHO MOUNTAINS


CITY           SKY/WX    TMP DP  RH WIND       PRES   REMARKS
MCCALL         CLOUDY    32  28  85 CALM      29.92F
HAILEY         MOSUNNY   32  23  69 NW7       30.00F WCI  26
STANLEY          N/A     24  18  77 CALM      29.98F
SALMON         CLOUDY    30  25  80 CALM      30.00F
CHALLIS        CLOUDY    27  22  81 CALM      30.00F
$$

IDZ002-004-006-007-026-172000-
NORTHERN IDAHO


CITY           SKY/WX    TMP DP  RH WIND       PRES   REMARKS
LEWISTON       CLOUDY    42  34  73 E7        29.93F
LOWELL           N/A     36  31  82 VRB3      30.02F
COEUR D`ALENE  PTSUNNY   36  30  80 NE12      29.93S WCI  27
MULLAN PASS    MOSUNNY   30  28  92 VRB7      29.85F WCI  23
$$



USA.gov is the U.S. government's official web portal to all federal, state and local government web resources and services.